[[{"header":{"parameterUnit":"m.s-1","parameterCategory":1,"la1":30.2991,"la2":30.254,"lo1":-89.0895,"lo2":-89.0444,"dy":0.0017,"dx":0.0017,"nx":28,"ny":28,"refTime":"2023-09-11T21:00:00:Z","depth":0,"parameterNumber":2,"parameterNumberName":"U-component_of_WINDS"},"data":[0,0,0,0,0,0,0,0,0,0,0,0,0,0,0,0,0,0,0,0,0,0,0,0,0,0,0,0,0,0,0,0,0,0,0,0,0,0,0,0,0,0,0,0,0,0,0,0,0,0,0,0,0,0,0,0,0,0,-0.6739,-0.674,0,-0.6795,-0.6796,-0.6797,-0.6801,-0.68,-0.68,-0.6799,-0.6858,-0.686,-0.6862,0,0,0,0,0,0,0,0,0,0,0,0,0,-0.6638,-0.664,-0.6739,-0.674,-0.6741,-0.6795,-0.6796,-0.6797,-0.6801,-0.68,-0.6799,-0.6799,-0.6857,-0.686,-0.6862,0,0,0,0,0,0,0,0,0,0,0,0,0,-0.6687,-0.6641,-0.6739,-0.6749,-0.6751,-0.6795,-0.6796,-0.6797,-0.6801,-0.68,-0.6799,-0.6798,-0.6856,-0.6859,-0.6862,-0.6901,0,0,-0.6872,-0.6874,0,0,0,0,0,0,0,0,-0.6684,-0.6691,-0.6747,-0.6749,-0.675,-0.679,-0.6782,-0.6832,-0.6801,-0.6782,-0.6799,-0.6798,-0.6836,-0.6841,-0.6853,-0.6904,-0.6906,-0.6873,-0.6874,-0.6876,-0.6877,0,0,0,0,0,0,0,-0.6681,-0.6688,-0.6761,-0.6748,-0.675,-0.6752,-0.6758,-0.6791,-0.6814,-0.6784,-0.6784,-0.6791,-0.6837,-0.685,-0.6855,-0.6907,-0.6872,-0.6875,-0.6877,-0.6879,-0.6993,-0.6994,0,0,0,0,0,0,-0.6675,-0.6685,-0.676,-0.6763,-0.6714,-0.6754,-0.6761,-0.6778,-0.6813,-0.6818,-0.6791,-0.6791,-0.6845,-0.6851,-0.6857,-0.6905,-0.6876,-0.6879,-0.6881,-0.6992,-0.6994,-0.6995,0,0,0,0,0,0,-0.6673,-0.6682,-0.6757,-0.6725,-0.6734,-0.6757,-0.6777,-0.678,-0.6793,-0.6819,-0.6823,-0.6801,-0.6845,-0.6852,-0.689,-0.6907,-0.688,-0.6883,-0.6991,-0.6993,-0.6994,-0.7002,0,0,0,0,0,0,-0.667,-0.6681,-0.6695,-0.6725,-0.6736,-0.6789,-0.6778,-0.6782,-0.6799,-0.6798,-0.6829,-0.6833,-0.6845,-0.6885,-0.6893,-0.6911,-0.6886,-0.6989,-0.6992,-0.6994,-0.7,-0.7004,-0.7007,0,0,0,0,0,-0.6667,-0.6695,-0.6696,-0.6705,-0.6754,-0.679,-0.6797,-0.6809,-0.68,-0.6815,-0.6832,-0.6832,-0.6904,-0.6889,-0.6898,-0.6918,-0.6988,-0.6991,-0.6993,-0.6999,-0.7003,-0.7006,0,0,0,0,0,0,-0.6667,-0.6699,-0.67,-0.6739,-0.6762,-0.6791,-0.681,-0.6812,-0.6838,-0.6837,-0.6851,-0.6858,-0.6896,-0.691,-0.6893,-0.6957,-0.6945,-0.695,-0.6946,-0.6951,-0.6954,-0.695,-0.6888,0,0,0,0,0,-0.6672,-0.6698,-0.6724,-0.6756,-0.6768,-0.6787,-0.6803,-0.681,-0.6834,-0.6844,-0.6864,-0.6887,-0.6916,-0.6934,-0.6961,-0.7002,-0.701,-0.702,-0.7023,-0.7026,-0.703,-0.7054,-0.7059,-0.7003,-0.7003,-0.7003,0,0,-0.6682,-0.6703,-0.6718,-0.6757,-0.6775,-0.6803,-0.6795,-0.6824,-0.6845,-0.6849,-0.6886,-0.6901,-0.6929,-0.6969,-0.6987,-0.6982,-0.7047,-0.7029,-0.7031,-0.7033,-0.7057,-0.7062,-0.7067,-0.7005,-0.7004,-0.7004,0,0,-0.6714,-0.6732,-0.6761,-0.678,-0.6808,-0.6821,-0.6828,-0.6856,-0.6867,-0.6904,-0.6908,-0.6933,-0.6981,-0.7001,-0.7017,-0.7058,-0.7061,-0.7067,-0.7084,-0.7107,-0.7112,-0.7116,-0.7132,-0.7137,-0.7071,-0.7071,-0.7071,0,-0.6724,-0.6764,-0.6776,-0.6805,-0.6823,-0.6828,-0.6858,-0.6876,-0.6911,-0.6924,-0.6917,-0.6978,-0.6997,-0.7042,-0.7053,-0.7065,-0.7075,-0.7064,-0.711,-0.7114,-0.7118,-0.7134,-0.7139,-0.7071,-0.7071,-0.7071,-0.7071,0,-0.6775,-0.6803,-0.6824,-0.6858,-0.6878,-0.6907,-0.6924,-0.6943,-0.6949,-0.6962,-0.7001,-0.7024,-0.7057,-0.7068,-0.7074,-0.7115,-0.7111,-0.7107,-0.7096,-0.7124,-0.7139,-0.7145,-0.7072,-0.7072,-0.7072,-0.7072,0,0,-0.6809,-0.685,-0.6857,-0.6874,-0.6905,-0.6928,-0.6958,-0.699,-0.7006,-0.7031,-0.7057,-0.7098,-0.7095,-0.7114,-0.7122,-0.7143,-0.7176,-0.7137,-0.7138,-0.7144,-0.7224,-0.7227,-0.7234,-0.7177,-0.7178,-0.7179,-0.7222,0,-0.6846,-0.69,-0.6912,-0.6958,-0.6986,-0.6991,-0.7018,-0.704,-0.7054,-0.708,-0.7095,-0.7124,-0.7118,-0.7129,-0.715,-0.7167,-0.7192,-0.7164,-0.7203,-0.7204,-0.7197,-0.7241,-0.7245,-0.7284,-0.7228,-0.7229,-0.7229,0,-0.6897,-0.6922,-0.6972,-0.7001,-0.7013,-0.7036,-0.7067,-0.7091,-0.7117,-0.7126,-0.7147,-0.7154,-0.7187,-0.7173,-0.7219,-0.72,-0.7217,-0.7228,-0.723,-0.7235,-0.7219,-0.7248,-0.7297,-0.7303,-0.7238,-0.7237,-0.7237,0,-0.6919,-0.6966,-0.7001,-0.7015,-0.7049,-0.7066,-0.7081,-0.7107,-0.7126,-0.7152,-0.7165,-0.7195,-0.7212,-0.7236,-0.7251,-0.7239,-0.7296,-0.7284,-0.7306,-0.7305,-0.7318,-0.7317,-0.7371,-0.7327,-0.7327,-0.7327,-0.7327,0,-0.6959,-0.699,-0.7012,-0.7034,-0.7069,-0.7082,-0.7116,-0.7132,-0.7154,-0.7181,-0.7187,-0.7211,-0.7229,-0.7256,-0.7268,-0.7305,-0.7312,-0.7321,-0.7324,-0.7321,-0.732,-0.7333,-0.7331,-0.7328,-0.7328,-0.7328,-0.7327,0,-0.699,-0.7006,-0.7046,-0.7075,-0.7083,-0.7108,-0.7133,-0.7156,-0.717,-0.7203,-0.7211,-0.7234,-0.7266,-0.7283,-0.7323,-0.7331,-0.7374,-0.7375,-0.7365,-0.7366,-0.7388,-0.7386,-0.7452,-0.7462,-0.7411,-0.7411,-0.7411,0,-0.7015,-0.7039,-0.7071,-0.7088,-0.7104,-0.7132,-0.7152,-0.7166,-0.7186,-0.7218,-0.7237,-0.727,-0.7297,-0.7349,-0.7369,-0.74,-0.7403,-0.7424,-0.7408,-0.7404,-0.7405,-0.7404,-0.7407,-0.7427,-0.7428,-0.7428,-0.7428,0,-0.7059,-0.7066,-0.7093,-0.7123,-0.7146,-0.717,-0.7195,-0.7209,-0.7228,-0.725,-0.7283,-0.7304,-0.7346,-0.7379,-0.7412,-0.7428,-0.7432,-0.7433,-0.744,-0.7438,-0.7432,-0.7437,-0.7374,-0.7432,-0.7431,-0.7431,-0.7431,-0.7431,-0.7089,-0.711,-0.7137,-0.7167,-0.7187,-0.7209,-0.7232,-0.7249,-0.7277,-0.7312,-0.7319,-0.7354,-0.7381,-0.7426,-0.7444,-0.7472,-0.7468,-0.7478,-0.748,-0.7483,-0.7485,-0.7426,-0.7478,-0.7478,-0.7478,-0.7478,-0.7478,0,-0.7134,-0.7151,-0.7179,-0.7213,-0.7237,-0.7238,-0.7265,-0.7285,-0.7316,-0.7341,-0.7367,-0.7406,-0.7438,-0.7461,-0.7494,-0.7513,-0.7516,-0.7521,-0.7521,-0.7525,-0.7486,-0.7477,-0.7519,-0.7519,-0.7519,-0.7519,-0.7519,-0.7519,-0.7161,-0.7198,-0.7208,-0.7255,-0.7272,-0.7307,-0.7323,-0.7344,-0.7364,-0.7407,-0.7434,-0.7448,-0.7473,-0.7507,-0.7537,-0.7543,-0.7556,-0.7562,-0.7568,-0.7531,-0.7527,-0.7523,-0.7515,-0.7564,-0.7564,-0.7605,-0.7605,-0.7605]},{"header":{"parameterUnit":"m.s-1","parameterCategory":1,"la1":30.2991,"la2":30.254,"lo1":-89.0895,"lo2":-89.0444,"dy":0.0017,"dx":0.0017,"nx":28,"ny":28,"refTime":"2023-09-11T21:00:00:Z","depth":0,"parameterNumber":3,"parameterNumberName":"V-component_of_WINDS"},"data":[0,0,0,0,0,0,0,0,0,0,0,0,0,0,0,0,0,0,0,0,0,0,0,0,0,0,0,0,0,0,0,0,0,0,0,0,0,0,0,0,0,0,0,0,0,0,0,0,0,0,0,0,0,0,0,0,0,0,3.5173,3.5174,0,3.5207,3.5207,3.5208,3.5169,3.5168,3.5167,3.5165,3.5197,3.5199,3.5201,0,0,0,0,0,0,0,0,0,0,0,0,0,3.5072,3.5074,3.5173,3.5174,3.5174,3.5207,3.5207,3.5208,3.517,3.5168,3.5166,3.5165,3.5196,3.5198,3.5201,0,0,0,0,0,0,0,0,0,0,0,0,0,3.5112,3.5075,3.5173,3.5159,3.5158,3.5207,3.5207,3.5208,3.517,3.5168,3.5166,3.5164,3.5195,3.5198,3.5201,3.5264,0,0,3.5211,3.5213,0,0,0,0,0,0,0,0,3.511,3.5116,3.5161,3.516,3.5159,3.5182,3.5183,3.5227,3.5171,3.5165,3.5165,3.5163,3.5193,3.5196,3.5207,3.5266,3.5267,3.5212,3.5214,3.5215,3.5216,0,0,0,0,0,0,0,3.5107,3.5114,3.5186,3.5161,3.5161,3.515,3.5153,3.5191,3.5191,3.5166,3.5163,3.5168,3.5192,3.5204,3.5208,3.5267,3.5211,3.5214,3.5216,3.5218,3.5376,3.5378,0,0,0,0,0,0,3.5106,3.5112,3.5185,3.5187,3.5129,3.5153,3.5157,3.5177,3.519,3.519,3.517,3.5166,3.52,3.5204,3.5209,3.5281,3.5215,3.5218,3.522,3.5374,3.5377,3.5379,0,0,0,0,0,0,3.5104,3.5113,3.5184,3.5149,3.5157,3.5157,3.518,3.5178,3.519,3.5193,3.5193,3.5182,3.5198,3.5204,3.525,3.5282,3.5219,3.5222,3.5371,3.5375,3.5378,3.5427,0,0,0,0,0,0,3.5102,3.5113,3.5138,3.515,3.5159,3.5226,3.5182,3.5181,3.5196,3.5192,3.5205,3.5205,3.5197,3.5246,3.5253,3.5285,3.5225,3.5368,3.5373,3.5377,3.5423,3.5432,3.544,0,0,0,0,0,3.5098,3.515,3.5139,3.5148,3.5191,3.5228,3.5233,3.5224,3.5199,3.5223,3.5225,3.5204,3.5278,3.5251,3.5259,3.5292,3.5366,3.5372,3.5377,3.5419,3.543,3.544,0,0,0,0,0,0,3.5141,3.5152,3.5139,3.5197,3.5212,3.5222,3.5252,3.5237,3.5258,3.5253,3.524,3.5243,3.5292,3.5297,3.5267,3.5352,3.5318,3.5325,3.5347,3.5358,3.5366,3.5363,3.5228,0,0,0,0,0,3.5158,3.5188,3.5196,3.5246,3.5254,3.5252,3.5268,3.526,3.5274,3.528,3.5285,3.5299,3.5324,3.5342,3.5366,3.5424,3.5425,3.5451,3.5459,3.5466,3.5472,3.55,3.5511,3.5396,3.5396,3.5396,0,0,3.5191,3.5201,3.5221,3.5255,3.5265,3.5296,3.5257,3.5292,3.5314,3.5285,3.5328,3.5332,3.5347,3.5399,3.5422,3.5404,3.5504,3.5473,3.5478,3.548,3.5507,3.5518,3.5527,3.5399,3.5399,3.5398,0,0,3.5268,3.528,3.5321,3.5333,3.5349,3.5347,3.5357,3.5369,3.5371,3.5415,3.5393,3.5418,3.5464,3.5474,3.5485,3.5565,3.5546,3.5573,3.5617,3.5645,3.5654,3.5662,3.5688,3.5697,3.5579,3.5579,3.5579,0,3.5307,3.5354,3.5345,3.538,3.5394,3.5371,3.5411,3.5423,3.5446,3.5456,3.5436,3.5492,3.55,3.5553,3.5572,3.5583,3.5592,3.5571,3.5654,3.5661,3.5669,3.5693,3.5703,3.5582,3.5582,3.5582,3.5581,0,3.54,3.5432,3.5464,3.5487,3.5505,3.5544,3.5539,3.5558,3.5548,3.5548,3.5591,3.56,3.5625,3.5637,3.5628,3.5688,3.5676,3.5656,3.562,3.5683,3.5705,3.5715,3.5587,3.5586,3.5585,3.5584,0,0,3.5504,3.5521,3.5533,3.5542,3.5558,3.5582,3.5619,3.5643,3.5659,3.5676,3.5704,3.5743,3.5723,3.5736,3.5728,3.5753,3.5812,3.5728,3.5729,3.5741,3.5876,3.589,3.5901,3.58,3.5802,3.5804,3.5874,0,3.5579,3.5642,3.5635,3.5695,3.5723,3.57,3.5732,3.5744,3.5745,3.5768,3.5768,3.5794,3.5768,3.5775,3.5799,3.58,3.5838,3.5795,3.5825,3.5826,3.5819,3.5913,3.5928,3.5994,3.5883,3.5884,3.5886,0,3.5675,3.5695,3.5758,3.5768,3.5779,3.5808,3.5828,3.5851,3.5864,3.5863,3.5877,3.5864,3.5898,3.5864,3.591,3.588,3.5892,3.5894,3.5896,3.5897,3.5858,3.5914,3.6015,3.6024,3.59,3.5899,3.5898,0,3.5741,3.5784,3.5826,3.5835,3.5849,3.5869,3.5875,3.5886,3.5901,3.5919,3.5927,3.5949,3.5961,3.5977,3.597,3.5946,3.6016,3.5982,3.6014,3.6014,3.6028,3.6027,3.613,3.604,3.604,3.604,3.604,0,3.5824,3.5862,3.5856,3.5882,3.5924,3.5914,3.5956,3.5959,3.5969,3.5994,3.5976,3.6,3.5989,3.6012,3.6006,3.6044,3.605,3.6048,3.6045,3.6048,3.6048,3.6054,3.6048,3.6042,3.6042,3.6041,3.6041,0,3.5904,3.5902,3.5946,3.5955,3.5958,3.5988,3.5995,3.6018,3.6018,3.6049,3.6056,3.6054,3.608,3.6075,3.6103,3.6099,3.6145,3.6138,3.6141,3.6138,3.617,3.6166,3.6278,3.6292,3.6195,3.6196,3.6197,0,3.5956,3.5985,3.5997,3.6012,3.602,3.6046,3.6061,3.6052,3.6068,3.6084,3.6105,3.6129,3.6147,3.6189,3.6189,3.621,3.6202,3.624,3.6205,3.6206,3.6199,3.6197,3.6198,3.6246,3.6247,3.6248,3.6249,0,3.6047,3.6044,3.6067,3.6088,3.6106,3.6123,3.6137,3.6151,3.6143,3.6161,3.6187,3.6202,3.623,3.6253,3.6272,3.6277,3.6261,3.626,3.6268,3.627,3.6269,3.6267,3.6157,3.6257,3.6256,3.6256,3.6255,3.6255,3.6113,3.6137,3.6149,3.6173,3.6183,3.6197,3.6219,3.6221,3.6243,3.6265,3.6259,3.6287,3.6298,3.6322,3.6329,3.6351,3.6336,3.6349,3.6351,3.6354,3.6356,3.6268,3.6354,3.6354,3.6354,3.6354,3.6354,0,3.6201,3.6208,3.6231,3.6251,3.627,3.6255,3.627,3.6286,3.6312,3.6324,3.6342,3.6371,3.6393,3.6395,3.6416,3.6432,3.6425,3.6438,3.6435,3.6436,3.637,3.6359,3.6443,3.6443,3.6443,3.6443,3.6443,3.6443,3.6249,3.6288,3.6287,3.6329,3.6335,3.6363,3.6373,3.6385,3.6394,3.6427,3.6445,3.6447,3.6454,3.6475,3.6494,3.6494,3.6501,3.6516,3.6512,3.645,3.6441,3.6432,3.6422,3.6518,3.6518,3.6577,3.6577,3.6578]}]]